Flag for Canada Weather past 2 weeks in Kenora, Ontario, Canada

Now
-8 °F

Partly sunny.


Feels Like: -25 °F
Forecast: -9 / 8 °F
Wind: 9 mph from Southwest

Location: Kenora

Current Time: Feb 27, 2015 at 10:18:06 AM

Latest Report: Feb 27, 2015 at 9:00 AM


Visibility: 15 mi

Pressure: 30.42 "Hg

Humidity: 77%

Dew point: -13 °F

Location of KenoraLocation

Historic Weather in Kenora — Graph

°F

Kenora temperature yesterday

Maximum temperature yesterday: 7 °F (at 3:00 PM)
Minimum temperature yesterday: -22 °F (at 7:00 AM)
Average temperature yesterday: -8 °F

Past Weeks' High & Low Weather Summary

 TemperatureHumidityPressure
High19 °F (Feb 23, 11:00 PM)93% (Feb 23, 8:51 PM)30.76 "Hg (Feb 23, 8:51 PM)
Low-29 °F (Feb 22, 6:00 AM)46% (Feb 26, 2:00 PM)29.55 "Hg (Feb 24, 2:00 AM)
Average-6 °F70%30.25 "Hg
* Reported Feb 12 9:00 AM — Feb 27 9:00 AM, Kenora, Weather by CustomWeather, © 2015

Note: Actual official high and low records may vary slightly from our data, if they occured in-between our weather recording intervals... More about our weather records

Advertising

Kenora weather history for previous 24 hours

 ConditionsComfort  
Time TempWeatherWind HumidityBarometerVisibility
9:00 AM
Fri, Feb 27
-8 °FPartly sunny.9 mph77%30.42 "Hg15 mi
8:00 AM-13 °FPartly sunny.8 mph76%30.43 "Hg15 mi
7:00 AM-15 °FScattered clouds.7 mph83%30.42 "Hg15 mi
6:00 AM-15 °FPassing clouds.8 mph83%30.43 "Hg15 mi
5:00 AM-9 °FClear.9 mph77%30.42 "Hg15 mi
4:00 AM-9 °FClear.8 mph77%30.42 "Hg15 mi
3:00 AM-8 °FClear.9 mph77%30.42 "Hg15 mi
2:00 AM-8 °FClear.9 mph77%30.44 "Hg15 mi
1:00 AM-8 °FClear.7 mph77%30.44 "Hg15 mi
12:00 AM-4 °FClear.9 mph71%30.45 "Hg15 mi
11:00 PM
Thu, Feb 26
-4 °FClear.7 mph71%30.47 "Hg15 mi
10:00 PM-4 °FClear.7 mph65%30.49 "Hg15 mi
9:00 PM-2 °FClear.9 mph59%30.49 "Hg15 mi
8:00 PM0 °FPassing clouds.9 mph54%30.50 "Hg15 mi
7:00 PM1 °FClear.9 mph55%30.50 "Hg15 mi
6:00 PM3 °FClear.7 mph50%30.49 "Hg15 mi
5:00 PM5 °FPassing clouds.9 mph46%30.48 "Hg15 mi
4:00 PM7 °FPassing clouds.9 mph47%30.48 "Hg15 mi
3:00 PM7 °FScattered clouds.9 mph47%30.48 "Hg15 mi
2:00 PM5 °FScattered clouds.12 mph46%30.49 "Hg15 mi
1:00 PM1 °FPartly sunny.9 mph50%30.51 "Hg15 mi
12:00 PM0 °FScattered clouds.9 mph50%30.53 "Hg15 mi
11:00 AM-6 °FPassing clouds.8 mph59%30.54 "Hg15 mi
10:00 AM-11 °FPassing clouds.7 mph70%30.55 "Hg15 mi
Weather by CustomWeather, © 2015

See weather overviewHow to use our weather pages